Location: Marsån
(66.4167°N, 22.2833°E)
Time: 08:45:47
(UTC+00:00)

Cosmos 1244 Rocket - Pass Details

Date: 24 February 2024
Orbit: 952 x 998 km, 82.9° (Epoch: 20 April)

Event Time Altitude Azimuth Distance (km) Brightness Sun altitude
Rises 20:08:27 0° 342° (NNW) 3,736 8.5 -27.2°
Reaches altitude 10° 20:11:00 10° 342° (NNW) 2,782 7.7 -27.4°
Maximum altitude 20:17:24 84° 256° (WSW) 1,009 4.5 -27.8°
Enters shadow 20:18:13 70° 182° (S) 1,060 4.4 -27.9°
